Location: Recife
(8.0585°S, 34.8848°W)
Time: 12:26:50
(UTC-03:00)

Courier 1B - Pass Details

Date: 14 April 2026
Orbit: 962 x 1209 km, 28.3° (Epoch: 7 May)

Event Time Altitude Azimuth Distance (km) Brightness Sun altitude
Rises 15:50:30 0° 246° (WSW) 3,864 11.5 20.3°
Reaches altitude 10° 15:53:20 10° 248° (WSW) 2,869 11.0 19.6°
Maximum altitude 16:00:15 68° 330° (NNW) 1,080 8.3 18.0°
Drops below altitude 10° 16:06:46 10° 52° (NE) 2,714 9.5 16.4°
Sets 16:09:23 0° 54° (NE) 3,643 10.1 15.8°
